Location: Monteux
(44.0348°N, 4.9972°E)
Time: 16:37:30
(UTC+00:00)

Cosmos 546 - Pass Details

Date: 30 November 2020
Orbit: 494 x 514 km, 50.6° (Epoch: 23 January)

Event Time Altitude Azimuth Distance (km) Brightness Sun altitude
Rises 17:57:24 0° 237° (WSW) 2,564 9.5 -19.9°
Reaches altitude 10° 17:59:35 10° 236° (SW) 1,686 8.3 -20.3°
Maximum altitude 18:03:23 82° 151° (SSE) 505 4.5 -21.0°
Enters shadow 18:03:34 78° 100° (E) 511 4.4 -21.0°
